Weather in Nemuro

Japan     43°18′33″N   145°34′02″E
temp.,
°C
wind,
m/s
gust,
m/s
humid.,
%
clouds,
%
prec.,
mm/h
press.,
hPa
HPBL,
m
8 may, sat
sat800:00+6sse4885100 0.0 100697
03:00+6ssw2392100 0.0 100563
06:00+7ssw3398100 0.0 100251
09:00+8ssw5898100 0.0 1001122
12:00+9sw7109033 0.1 999184
15:00+11sw8127921 0.1 999217
18:00+9ssw228398 0.0 100121
21:00+9wsw23802 0.0 100336
9 may, sun
sun900:00+7nne12890 0.0 100313
03:00+5e35921 0.0 100354
06:00+6ese339011 0.0 100461
09:00+8se568310 0.0 1003148
12:00+9sse357725 0.0 1001157
15:00+9s3476100 0.0 1000100
18:00+8w1281100 0.2 99847
21:00+5ne2395100 4.4 999126
10 may, mon
mon1000:00+6ssw229593 0.1 99881
03:00+5wsw3698100 0.1 99795
06:00+6sw359420 0.1 998125
09:00+8sw368076 0.1 998512
12:00+7sw368795 0.3 997184
15:00+5n71093100 0.9 1000208
18:00+5nnw51091100 0.5 1002438
21:00+5wnw61288100 0.6 1004588
11 may, tue
tue1100:00+5wnw81488100 0.3 1005785
03:00+4wnw9158783 0.4 1006798
06:00+4nw588379 0.0 1008725
09:00+5nnw687647 0.0 1010591
12:00+6nnw797762 0.0 1011696
15:00+4n8108595 0.0 1013465
18:00+3nnw7119085 0.0 1016555
21:00+3nnw689199 0.0 1018412
12 may, wed
wed1200:00+3nnw5791100 0.0 1019332
03:00+3nnw568996 0.0 1021429
06:00+3nnw448596 0.0 1023353
09:00+4nne327792 0.1 1024438
12:00+5ese327431 0.0 1024497
15:00+5s45779 0.0 1024357
18:00+4ssw45843 0.0 1024255
21:00+4ssw4691100 0.0 1024174